Weather History for South St. Paul, MN

Change the Weather History Date:

Wednesday, February 13, 2013

  Actual Average (KMSP) Record (KMSP)
Temperature  
Mean Temperature 30 °F 20 °F  
Max Temperature 39 °F 28 °F 51 °F (1890)
Min Temperature 21 °F 12 °F -23 °F (1905)
Degree Days  
Heating Degree Days 35 45  
Month to date heating degree days 607  
Since 1 July heating degree days 5161  
Cooling Degree Days 0 0  
Month to date cooling degree days 0  
Year to date cooling degree days 0  
Moisture  
Dew Point 25 °F    
Average Humidity 81    
Maximum Humidity 99    
Minimum Humidity 61    
Precipitation  
Precipitation 0.10 in 0.02 in 0.60 in (1915)
Month to date precipitation 0.30  
Year to date precipitation 1.20  
Snow  
Snow 0.00 in 0.20 in 5.20 in (1909)
Month to date snowfall 3.4  
Since 1 July snowfall 37.4  
Snow Depth -    
Sea Level Pressure  
Sea Level Pressure 29.67 in    
Wind  
Wind Speed 2 mph (SW)    
Max Wind Speed 9 mph    
Max Gust Speed -    
Visibility 8 miles    
Events Rain , Snow    
T = Trace of Precipitation, MM = Missing Value Source: NWS Daily Summary

Daily Weather History Graph

Daily Weather History Graph

Search for Another Location

Airport:

Trip Planner

Search our weather history database for the weather conditions in past years. The results will help you decide how hot, cold, wet, or windy it might be!

Date:

Astronomy

Feb. 13, 2013 Rise Set
Actual Time 7:15 AM CST 5:37 PM CST
Civil Twilight 6:45 AM CST 6:08 PM CST
Nautical Twilight 6:10 AM CST 6:42 PM CST
Astronomical Twilight 5:36 AM CST 7:16 PM CST
Moon 8:33 AM CST (2/13) 9:54 PM CST (2/13)
Length of Visible Light 11h 23m
Length of Day
10h 22m
Waxing Crescent, 14% of the Moon is Illuminated
Feb 13
Waxing Crescent
Feb 17
First Quarter
Feb 25
Full
Mar 4
Last Quarter
Mar 11
New

Hourly Weather History & Observations

Time (CST) Temp. Windchill Dew Point Humidity Pressure Visibility Wind Dir Wind Speed Gust Speed Precip Events Conditions
12:12 AM 23.7 °F - 19.2 °F 83% 29.80 in 10.0 mi Calm Calm - N/A   Clear
12:32 AM 22.5 °F - 18.5 °F 85% 29.80 in 10.0 mi Calm Calm - N/A   Clear
12:52 AM 22.3 °F - 18.5 °F 85% 29.79 in 10.0 mi Calm Calm - N/A   Scattered Clouds
1:12 AM 23.0 °F 18.4 °F 18.9 °F 84% 29.78 in 10.0 mi WSW 3.5 mph - N/A   Overcast
1:32 AM 23.4 °F - 18.9 °F 83% 29.78 in 10.0 mi Calm Calm - N/A   Overcast
2:12 AM 22.6 °F 16.5 °F 18.3 °F 83% 29.77 in 10.0 mi WSW 4.6 mph - N/A   Clear
2:32 AM 22.3 °F 17.6 °F 18.3 °F 85% 29.77 in 10.0 mi WSW 3.5 mph - N/A   Mostly Cloudy
2:52 AM 22.6 °F - 18.5 °F 84% 29.77 in 10.0 mi Calm Calm - N/A   Overcast
3:12 AM 23.0 °F 18.4 °F 18.7 °F 84% 29.77 in 10.0 mi WSW 3.5 mph - N/A   Overcast
3:32 AM 23.2 °F 18.7 °F 18.9 °F 84% 29.76 in 10.0 mi WSW 3.5 mph - N/A   Overcast
3:52 AM 23.4 °F 18.9 °F 18.9 °F 83% 29.76 in 10.0 mi WSW 3.5 mph - N/A   Overcast
4:12 AM 23.4 °F 16.2 °F 18.9 °F 83% 29.76 in 10.0 mi WSW 5.8 mph - N/A   Overcast
4:32 AM 23.0 °F 18.4 °F 18.5 °F 83% 29.75 in 10.0 mi WSW 3.5 mph - N/A   Mostly Cloudy
4:52 AM 22.6 °F 18.0 °F 18.3 °F 83% 29.76 in 10.0 mi West 3.5 mph - N/A   Clear
5:12 AM 22.1 °F 17.4 °F 18.0 °F 84% 29.75 in 10.0 mi WSW 3.5 mph - N/A   Clear
5:32 AM 21.9 °F - 17.8 °F 84% 29.75 in 10.0 mi Calm Calm - N/A   Clear
5:52 AM 21.6 °F - 17.6 °F 85% 29.75 in 10.0 mi Calm Calm - N/A   Mostly Cloudy
6:12 AM 21.9 °F 15.7 °F 18.1 °F 85% 29.75 in 10.0 mi West 4.6 mph - N/A   Overcast
6:32 AM 21.9 °F - 18.0 °F 85% 29.73 in 10.0 mi Calm Calm - N/A   Overcast
6:52 AM 22.1 °F - 18.3 °F 85% 29.72 in 10.0 mi Calm Calm - N/A   Overcast
7:12 AM 21.7 °F - 18.0 °F 85% 29.73 in 10.0 mi Calm Calm - N/A   Overcast
7:32 AM 21.2 °F 16.4 °F 17.6 °F 86% 29.72 in 10.0 mi SSW 3.5 mph - N/A   Overcast
7:52 AM 21.6 °F 16.8 °F 18.0 °F 86% 29.73 in 10.0 mi SSW 3.5 mph - N/A   Overcast
8:12 AM 22.1 °F - 18.5 °F 86% 29.73 in 10.0 mi Calm Calm - N/A   Overcast
8:32 AM 22.6 °F - 18.5 °F 84% 29.73 in 10.0 mi Calm Calm - N/A   Overcast
8:52 AM 23.0 °F 18.4 °F 19.0 °F 85% 29.72 in 10.0 mi South 3.5 mph - N/A   Overcast
9:12 AM 23.4 °F - 19.2 °F 84% 29.72 in 10.0 mi Calm Calm - N/A   Overcast
9:32 AM 24.1 °F - 19.4 °F 82% 29.72 in 10.0 mi Calm Calm - N/A   Overcast
9:52 AM 25.3 °F 19.7 °F 19.9 °F 80% 29.72 in 10.0 mi SW 4.6 mph - N/A   Overcast
10:12 AM 27.0 °F 21.6 °F 21.0 °F 78% 29.71 in 10.0 mi SW 4.6 mph - N/A   Scattered Clouds
10:32 AM 29.7 °F 24.7 °F 22.3 °F 74% 29.71 in 10.0 mi West 4.6 mph - N/A   Mostly Cloudy
10:52 AM 31.5 °F 26.8 °F 23.0 °F 71% 29.71 in 10.0 mi SW 4.6 mph - N/A   Mostly Cloudy
11:12 AM 32.2 °F 26.7 °F 23.9 °F 72% 29.70 in 10.0 mi SW 5.8 mph - N/A   Overcast
11:32 AM 32.9 °F 29.8 °F 24.1 °F 70% 29.70 in 10.0 mi WSW 3.5 mph - N/A   Overcast
11:52 AM 33.8 °F 30.8 °F 25.0 °F 70% 29.70 in 10.0 mi West 3.5 mph - N/A   Overcast
12:12 PM 34.3 °F 31.4 °F 24.8 °F 68% 29.69 in 10.0 mi WSW 3.5 mph - N/A   Overcast
12:32 PM 35.6 °F 30.7 °F 25.3 °F 66% 29.68 in 10.0 mi WSW 5.8 mph - N/A   Scattered Clouds
12:52 PM 36.5 °F 31.0 °F 25.3 °F 64% 29.67 in 10.0 mi West 6.9 mph - N/A   Scattered Clouds
1:12 PM 36.9 °F 32.2 °F 25.5 °F 64% 29.67 in 10.0 mi WSW 5.8 mph - N/A   Scattered Clouds
1:32 PM 37.4 °F 34.9 °F 25.7 °F 63% 29.66 in 10.0 mi South 3.5 mph - N/A   Scattered Clouds
1:52 PM 38.3 °F 34.8 °F 26.4 °F 62% 29.65 in 10.0 mi SSW 4.6 mph - N/A   Clear
2:12 PM 38.3 °F 33.2 °F 26.8 °F 63% 29.63 in 10.0 mi South 6.9 mph - N/A   Clear
2:32 PM 38.3 °F 33.9 °F 27.1 °F 64% 29.63 in 10.0 mi SSE 5.8 mph - N/A   Clear
2:52 PM 38.7 °F 32.9 °F 27.0 °F 63% 29.63 in 10.0 mi SSW 8.1 mph - N/A   Clear
3:12 PM 38.8 °F 33.8 °F 27.3 °F 63% 29.63 in 10.0 mi SSW 6.9 mph - N/A   Clear
3:32 PM 39.6 °F 35.4 °F 27.3 °F 62% 29.63 in 10.0 mi SSW 5.8 mph - N/A   Scattered Clouds
3:52 PM 39.6 °F 33.5 °F 27.1 °F 61% 29.63 in 10.0 mi SW 9.2 mph - N/A   Mostly Cloudy
4:12 PM 39.4 °F 33.2 °F 27.1 °F 62% 29.63 in 10.0 mi WSW 9.2 mph - N/A   Mostly Cloudy
4:32 PM 38.7 °F 34.3 °F 28.2 °F 66% 29.63 in 10.0 mi WSW 5.8 mph - N/A Rain Light Rain
4:52 PM 38.3 °F 34.8 °F 28.6 °F 68% 29.63 in 10.0 mi SSW 4.6 mph - N/A   Mostly Cloudy
5:12 PM 37.9 °F 35.5 °F 29.1 °F 71% 29.62 in 10.0 mi SW 3.5 mph - N/A   Mostly Cloudy
5:32 PM 37.4 °F 34.9 °F 29.7 °F 74% 29.63 in 10.0 mi SSW 3.5 mph - N/A   Overcast
5:52 PM 36.7 °F - 30.6 °F 78% 29.62 in 10.0 mi Calm Calm - N/A Rain Light Rain
6:12 PM 36.0 °F - 31.1 °F 82% 29.61 in 10.0 mi Calm Calm - N/A   Light Drizzle
6:32 PM 35.6 °F 32.8 °F 31.6 °F 85% 29.61 in 10.0 mi East 3.5 mph - N/A   Overcast
6:52 PM 35.2 °F - 32.0 °F 88% 29.61 in 7.0 mi Calm Calm - N/A Rain Light Rain
7:12 PM 35.1 °F - 32.0 °F 89% 29.61 in 7.0 mi Calm Calm - N/A Rain Light Rain
7:32 PM 34.9 °F - 32.0 °F 89% 29.60 in 7.0 mi Calm Calm - N/A Rain Light Rain
7:52 PM 34.7 °F - 32.0 °F 90% 29.59 in 4.0 mi Calm Calm - N/A Rain Rain
8:12 PM 34.2 °F 31.2 °F 32.2 °F 92% 29.59 in 3.0 mi SSE 3.5 mph - 0.01 in Rain Rain
8:32 PM 33.8 °F 30.8 °F 32.4 °F 94% 29.57 in 2.0 mi SE 3.5 mph - 0.02 in Rain Rain
8:52 PM 33.8 °F - 32.5 °F 95% 29.57 in 3.0 mi Calm Calm - 0.02 in Rain Light Rain
9:12 PM 33.8 °F - 32.5 °F 95% 29.56 in 2.0 mi Calm Calm - 0.01 in Snow Light Snow
9:32 PM 33.4 °F - 32.5 °F 96% 29.55 in 1.5 mi Calm Calm - 0.02 in   Unknown
9:52 PM 33.3 °F - 32.4 °F 96% 29.55 in 1.2 mi Calm Calm - 0.03 in   Unknown
10:12 PM 33.3 °F - 32.4 °F 96% 29.55 in 1.2 mi Calm Calm - 0.01 in Snow Light Snow
10:32 PM 33.3 °F - 32.5 °F 97% 29.55 in 0.8 mi Calm Calm - 0.02 in   Overcast
10:52 PM 33.3 °F - 32.5 °F 97% 29.55 in 0.8 mi Calm Calm - 0.03 in Snow Light Snow
11:12 PM 33.3 °F - 32.5 °F 97% 29.55 in 1.0 mi Calm Calm - 0.01 in   Overcast
11:32 PM 33.3 °F - 32.5 °F 97% 29.55 in 1.0 mi Calm Calm - 0.01 in Snow Light Snow
11:52 PM 33.3 °F - 32.9 °F 99% 29.55 in 0.8 mi Calm Calm - 0.02 in Snow Light Snow